User: anonymous   Login
Location: Unspecified
(0.0000°N, 0.0000°E)
Time: 11:39:04
(UTC+00:00)
Language:

Feng Yun 1-A - Orbit

View from above orbital plane
View from above orbital plane
View from above satellite
View from above satellite

Ground track
Ground track

The orbit data is extracted from the following two-line orbital elements,

1 19467U 88080A   18018.44890389 +.00000282 +00000-0 +21072-3 0  9991
2 19467 099.1933 000.8512 0014209 184.5947 175.5090 14.03058645503105
Epoch (UTC): 18 January 2018 10:46:25
Eccentricity: 0.0014209
inclination: 99.1933°
perigee height: 873 km
apogee height: 893 km
right ascension of ascending node: 0.8512°
argument of perigee: 184.5947°
revolutions per day: 14.03058645
mean anomaly at epoch: 175.5090°
orbit number at epoch: 50310

The dashed part of the orbit path shows where the satellite is in the earth's shadow,  

DLR